HODOYOSHI-3

Last updated on Sat Oct 25 2025 00:02:32 GMT+0000 (Coordinated Universal Time)

1 40015U 14033F 25297.55823166 .00002646 00000+0 31645-3 0 9991 2 40015 97.6196 105.5447 0034425 52.1090 308.3230 14.84550923612651
UTC large
Height (km)
Speed (km/s)
/
Latitude / Longitude
Inclination (degrees)
Orbital Period (minutes)
Azimuth
Elevation
Range (km)
Doppler Factor

Next 0 passes for location: London (51.5072 / 0.1276)

Sorry there are no passes over London.